When you browse on this site, cookies collect data to enhance your experience and personalize the content and advertising you see.
Visit our Privacy Policy to learn more. By continuing to use the site, you agree to this use of cookies and data.
  • în România
  • Lista ţărilor
  • Pe 7 zile
  • Temperatura apei
  • Hartă satelitară
  • Meteo pe hartă
  • Widget-uri
  • user-avatar
    Intrare

    Meteo pe oră la Las-Vegas

    Astăzi, 22 Mai, Miercuri

    Timp Temperatura Precipitaţii Vânt Presiune Umiditate
    00:00 +18°C° 0 mm 1 m/s 699 mmHg 36%
    01:00 +17°C° 0 mm 2 m/s 699 mmHg 36%
    02:00 +17°C° 0 mm 2 m/s 699 mmHg 37%
    03:00 +16°C° 0 mm 2 m/s 699 mmHg 38%
    04:00 +16°C° 0 mm 1 m/s 699 mmHg 39%
    05:00 +16°C° 0 mm 1 m/s 699 mmHg 38%
    06:00 +16°C° 0 mm 1 m/s 699 mmHg 36%
    07:00 +18°C° 0 mm 1 m/s 699 mmHg 35%
    08:00 +18°C° 0 mm 1 m/s 700 mmHg 33%
    09:00 +19°C° 0 mm 1 m/s 700 mmHg 31%
    10:00 +19°C° 0 mm 1 m/s 700 mmHg 29%
    11:00 +20°C° 0 mm 1 m/s 700 mmHg 28%
    12:00 +20°C° 0 mm 1 m/s 700 mmHg 28%
    13:00 +20°C° 0 mm 1 m/s 700 mmHg 27%
    14:00 +19°C° 0.1 mm 2 m/s 700 mmHg 29%
    15:00 +19°C° 0.1 mm 2 m/s 699 mmHg 31%
    16:00 +18°C° 0.1 mm 2 m/s 699 mmHg 33%
    17:00 +18°C° 0.1 mm 2 m/s 699 mmHg 35%
    18:00 +18°C° 0.1 mm 2 m/s 699 mmHg 36%
    19:00 +17°C° 0.1 mm 3 m/s 700 mmHg 37%
    20:00 +17°C° 0.1 mm 2 m/s 700 mmHg 37%
    21:00 +17°C° 0.1 mm 2 m/s 700 mmHg 37%
    22:00 +17°C° 0.1 mm 2 m/s 701 mmHg 37%
    23:00 +17°C° 0 mm 2 m/s 701 mmHg 40%

    Mâine, 23 Mai, Joi

    Timp Temperatura Precipitaţii Vânt Presiune Umiditate
    00:00 +16°C° 0 mm 2 m/s 701 mmHg 42%
    01:00 +16°C° 0 mm 2 m/s 701 mmHg 45%
    02:00 +15°C° 0.1 mm 2 m/s 701 mmHg 47%
    03:00 +15°C° 0.1 mm 2 m/s 701 mmHg 50%
    04:00 +15°C° 0.1 mm 2 m/s 701 mmHg 52%
    05:00 +15°C° 0.1 mm 2 m/s 702 mmHg 51%
    06:00 +16°C° 0.1 mm 3 m/s 702 mmHg 49%
    07:00 +16°C° 0.1 mm 3 m/s 703 mmHg 48%
    08:00 +17°C° 0.1 mm 4 m/s 704 mmHg 45%
    09:00 +18°C° 0.1 mm 4 m/s 704 mmHg 41%
    10:00 +19°C° 0.1 mm 5 m/s 705 mmHg 38%
    11:00 +20°C° 0.1 mm 5 m/s 705 mmHg 37%
    12:00 +21°C° 0.1 mm 6 m/s 706 mmHg 35%
    13:00 +22°C° 0.1 mm 7 m/s 706 mmHg 34%
    14:00 +22°C° 0.1 mm 6 m/s 706 mmHg 33%
    15:00 +22°C° 0.1 mm 6 m/s 706 mmHg 33%
    16:00 +22°C° 0.1 mm 6 m/s 705 mmHg 33%
    17:00 +22°C° 0.1 mm 5 m/s 706 mmHg 34%
    18:00 +21°C° 0.1 mm 4 m/s 706 mmHg 35%
    19:00 +21°C° 0.1 mm 4 m/s 706 mmHg 36%
    20:00 +20°C° 0.1 mm 3 m/s 706 mmHg 38%
    21:00 +20°C° 0.1 mm 2 m/s 707 mmHg 39%
    22:00 +20°C° 0.1 mm 2 m/s 707 mmHg 40%
    23:00 +20°C° 0.1 mm 1 m/s 707 mmHg 42%

    Poimâine, 24 Mai, Vineri

    Timp Temperatura Precipitaţii Vânt Presiune Umiditate
    00:00 +20°C° 0.1 mm 1 m/s 707 mmHg 44%
    01:00 +19°C° 0.1 mm 1 m/s 707 mmHg 45%
    02:00 +17°C° 0 mm 0 m/s 707 mmHg 47%
    03:00 +16°C° 0 mm 0 m/s 707 mmHg 49%
    04:00 +16°C° 0 mm 0 m/s 707 mmHg 51%
    05:00 +17°C° 0 mm 0 m/s 707 mmHg 47%
    06:00 +20°C° 0 mm 1 m/s 708 mmHg 44%
    07:00 +20°C° 0 mm 1 m/s 708 mmHg 41%
    08:00 +21°C° 0 mm 1 m/s 708 mmHg 39%
    09:00 +22°C° 0 mm 1 m/s 709 mmHg 37%
    10:00 +23°C° 0 mm 1 m/s 709 mmHg 35%
    11:00 +24°C° 0 mm 1 m/s 708 mmHg 33%
    12:00 +24°C° 0 mm 2 m/s 708 mmHg 31%
    13:00 +25°C° 0 mm 2 m/s 707 mmHg 29%
    14:00 +26°C° 0 mm 2 m/s 707 mmHg 28%
    15:00 +26°C° 0 mm 2 m/s 706 mmHg 27%
    16:00 +26°C° 0 mm 2 m/s 706 mmHg 27%
    17:00 +26°C° 0 mm 2 m/s 706 mmHg 27%
    18:00 +26°C° 0 mm 2 m/s 706 mmHg 28%
    19:00 +25°C° 0 mm 1 m/s 706 mmHg 28%
    20:00 +25°C° 0 mm 1 m/s 706 mmHg 30%
    21:00 +24°C° 0 mm 2 m/s 706 mmHg 32%
    22:00 +24°C° 0 mm 2 m/s 706 mmHg 34%
    23:00 +23°C° 0 mm 1 m/s 705 mmHg 35%

    25 Mai, Sâmbătă

    Timp Temperatura Precipitaţii Vânt Presiune Umiditate
    00:00 +22°C° 0 mm 1 m/s 705 mmHg 37%
    01:00 +22°C° 0 mm 1 m/s 705 mmHg 38%
    02:00 +21°C° 0 mm 1 m/s 704 mmHg 39%
    03:00 +21°C° 0 mm 1 m/s 704 mmHg 40%
    04:00 +18°C° 0 mm 0 m/s 704 mmHg 42%
    05:00 +21°C° 0 mm 1 m/s 704 mmHg 37%
    06:00 +22°C° 0 mm 1 m/s 705 mmHg 33%
    07:00 +23°C° 0 mm 1 m/s 705 mmHg 28%
    08:00 +24°C° 0 mm 2 m/s 705 mmHg 25%
    09:00 +26°C° 0 mm 3 m/s 705 mmHg 22%
    10:00 +27°C° 0 mm 4 m/s 705 mmHg 19%
    11:00 +28°C° 0 mm 5 m/s 705 mmHg 17%
    12:00 +29°C° 0 mm 6 m/s 705 mmHg 15%
    13:00 +30°C° 0 mm 7 m/s 704 mmHg 13%
    14:00 +30°C° 0 mm 7 m/s 704 mmHg 13%
    15:00 +29°C° 0 mm 7 m/s 704 mmHg 13%
    16:00 +29°C° 0 mm 7 m/s 703 mmHg 13%
    17:00 +29°C° 0 mm 7 m/s 703 mmHg 14%
    18:00 +28°C° 0 mm 6 m/s 703 mmHg 16%
    19:00 +27°C° 0 mm 6 m/s 703 mmHg 17%
    20:00 +26°C° 0 mm 5 m/s 703 mmHg 19%
    21:00 +26°C° 0 mm 4 m/s 703 mmHg 21%
    22:00 +25°C° 0 mm 3 m/s 703 mmHg 23%
    23:00 +24°C° 0 mm 2 m/s 703 mmHg 23%

    26 Mai, Duminică

    Timp Temperatura Precipitaţii Vânt Presiune Umiditate
    00:00 +23°C° 0 mm 2 m/s 703 mmHg 24%
    01:00 +21°C° 0 mm 2 m/s 702 mmHg 25%
    02:00 +21°C° 0 mm 2 m/s 702 mmHg 25%
    03:00 +20°C° 0 mm 3 m/s 702 mmHg 25%
    04:00 +20°C° 0 mm 3 m/s 702 mmHg 24%
    05:00 +20°C° 0 mm 4 m/s 703 mmHg 27%
    06:00 +20°C° 0 mm 4 m/s 703 mmHg 30%
    07:00 +20°C° 0 mm 5 m/s 704 mmHg 33%
    08:00 +21°C° 0.1 mm 5 m/s 704 mmHg 34%
    09:00 +21°C° 0.1 mm 6 m/s 704 mmHg 35%
    10:00 +22°C° 0.1 mm 6 m/s 705 mmHg 36%
    11:00 +22°C° 0.2 mm 6 m/s 704 mmHg 34%
    12:00 +23°C° 0.2 mm 6 m/s 704 mmHg 32%
    13:00 +23°C° 0.2 mm 6 m/s 704 mmHg 30%
    14:00 +25°C° 0.1 mm 5 m/s 704 mmHg 28%
    15:00 +25°C° 0.1 mm 5 m/s 703 mmHg 25%
    16:00 +25°C° 0.1 mm 5 m/s 703 mmHg 23%
    17:00 +23°C° 0 mm 4 m/s 703 mmHg 23%
    18:00 +23°C° 0 mm 4 m/s 703 mmHg 24%
    19:00 +22°C° 0 mm 4 m/s 703 mmHg 24%
    20:00 +21°C° 0 mm 4 m/s 703 mmHg 27%
    21:00 +21°C° 0 mm 4 m/s 704 mmHg 30%
    22:00 +20°C° 0 mm 3 m/s 704 mmHg 32%
    23:00 +20°C° 0 mm 3 m/s 704 mmHg 34%

    27 Mai, Luni

    Timp Temperatura Precipitaţii Vânt Presiune Umiditate
    00:00 +19°C° 0 mm 3 m/s 704 mmHg 36%
    01:00 +19°C° 0 mm 3 m/s 704 mmHg 37%
    02:00 +18°C° 0 mm 2 m/s 704 mmHg 39%
    03:00 +18°C° 0 mm 2 m/s 704 mmHg 40%
    04:00 +18°C° 0 mm 2 m/s 705 mmHg 41%
    05:00 +18°C° 0 mm 2 m/s 705 mmHg 39%
    06:00 +19°C° 0 mm 2 m/s 706 mmHg 37%
    07:00 +20°C° 0 mm 1 m/s 706 mmHg 34%
    08:00 +21°C° 0 mm 1 m/s 706 mmHg 32%
    09:00 +22°C° 0 mm 1 m/s 706 mmHg 30%
    10:00 +23°C° 0 mm 1 m/s 706 mmHg 28%
    11:00 +24°C° 0 mm 1 m/s 706 mmHg 26%
    12:00 +25°C° 0 mm 2 m/s 706 mmHg 24%
    13:00 +26°C° 0 mm 2 m/s 706 mmHg 22%
    14:00 +26°C° 0 mm 2 m/s 705 mmHg 21%
    15:00 +27°C° 0 mm 2 m/s 705 mmHg 20%
    16:00 +27°C° 0 mm 2 m/s 705 mmHg 19%
    17:00 +27°C° 0 mm 3 m/s 705 mmHg 20%
    18:00 +27°C° 0 mm 3 m/s 705 mmHg 20%
    19:00 +26°C° 0 mm 3 m/s 705 mmHg 21%
    20:00 +26°C° 0.1 mm 3 m/s 705 mmHg 22%
    21:00 +25°C° 0.1 mm 4 m/s 706 mmHg 24%
    22:00 +25°C° 0.1 mm 4 m/s 706 mmHg 25%
    23:00 +24°C° 0 mm 3 m/s 706 mmHg 27%
    Arată mai mult